Location: Les Thiberg�res
(47.8554°N, 1.0978°W)
Time: 07:43:42
(UTC+00:00)

COSMOS 2428 - Pass Details

Date: 17 February 2020
Orbit: 846 x 856 km, 70.9° (Epoch: 30 March)

Event Time Altitude Azimuth Distance (km) Brightness Sun altitude
Exits shadow 04:28:29 22° 341° (NNW) 1,780 4.3 -27.3°
Drops below altitude 10° 04:31:31 10° 10° (N) 2,500 5.4 -26.8°
Sets 04:34:26 0° 24° (NNE) 3,440 6.3 -26.4°
